Content
SEND FEEDBACK

Daily
Averages
Monthly
Summary
United Kingdom

CONGLETON, ENGLAND


Home > Europe > United Kingdom > England
Elevation: 306 feet     Latitude: 53 20N     Longitude: 002 09W

WEATHER
 
SELECT A DAY
Number of Records: 294,720;   Date Range: 7/1/96 - 9/18/14
 
SHARE

PRINT THIS DATA

[ ← Previous Day ]
WEATHER ALMANAC - OCTOBER 18, 2013
[ Next Day → ]
[ °C ]   °F
Weather ElementAverageHighLow
Temperature54.5 °F59 °F (8:50 pm)46.4 °F (12:50 am)
Dewpoint51.8 °F53.6 °F (10:50 am)46.4 °F (12:50 am)
Humidity90.8 %100 % (12:50 am)77 % (8:50 pm)
Barometer29.88 in29.98 in (12:50 am)29.71 in (11:50 pm)
Wind Speed8.3 mph15 mph (7:50 pm)
Weather ElementAverage
Visibility5.9 mi
Wind DirectionESE (127 °)

Weather ElementTotal
Precipitation---
Heating Degree Days12.3 (Base 65)
Growing Degree Days2.7 (Base 50)
Averaged from 47 records on October 18, 2013
WEATHER CONDITIONS BREAKOUT
WIND DIRECTION BREAKOUT
WEATHER BY HOUR - OCTOBER 18, 2013
[ °C ]   °F
Local TimeTemperatureDewpointHumidityBarometerVisibilityWind DirectionWind SpeedGust SpeedPrecipitationEventsConditions
12:50 AM46.4 °F46.4 °F100 %29.98 in5.6 miESE (110°)4.6 mphScattered Clouds
1:20 AM50.0 °F50.0 °F100 %29.98 in6.2 miESE (110°)5.8 mphScattered Clouds
1:50 AM50.0 °F50.0 °F100 %29.98 in3.7 miCalmRainRain
2:20 AM50.0 °F50.0 °F100 %29.98 in5.0 miEast (100°)5.8 mphRainLight Rain
2:50 AM51.8 °F50.0 °F94 %29.98 in6.2 miSE (140°)6.9 mphMostly Cloudy
3:20 AM53.6 °F51.8 °F94 %29.98 in6.2 miSE (140°)4.6 mphOvercast
3:50 AM51.8 °F50.0 °F94 %29.98 in6.2 miSE (130°)5.8 mphScattered Clouds
4:20 AM51.8 °F50.0 °F94 %29.95 in6.2 miSE (130°)4.6 mphScattered Clouds
4:50 AM51.8 °F50.0 °F94 %29.95 in6.2 miSSE (150°)3.5 mphPartly Cloudy
5:20 AM50.0 °F48.2 °F94 %29.95 in5.6 miESE (120°)3.5 mphPartly Cloudy
5:50 AM50.0 °F48.2 °F94 %29.95 in5.6 miESE (120°)3.5 mph
6:20 AM50.0 °F50.0 °F100 %29.95 in5.6 miEast (90°)4.6 mph
6:50 AM51.8 °F50.0 °F94 %29.95 in5.6 miEast (80°)5.8 mph
7:20 AM51.8 °F50.0 °F94 %29.95 in5.6 miEast (90°)5.8 mphPartly Cloudy
7:50 AM51.8 °F50.0 °F94 %29.95 in5.6 miEast (100°)5.8 mphPartly Cloudy
8:20 AM51.8 °F50.0 °F94 %29.95 in6.2 miEast (100°)5.8 mphScattered Clouds
8:50 AM51.8 °F50.0 °F94 %29.95 in6.2 miESE (110°)4.6 mphScattered Clouds
9:20 AM53.6 °F51.8 °F94 %29.95 in5.6 miESE (120°)4.6 mphScattered Clouds
9:50 AM53.6 °F51.8 °F94 %29.95 in5.0 miSE (130°)4.6 mphMostly Cloudy
10:20 AM55.4 °F51.8 °F88 %29.95 in5.6 miESE (120°)5.8 mphRainLight Rain Showers
10:50 AM55.4 °F53.6 °F94 %29.95 in5.6 miESE (110°)8.1 mphMostly Cloudy
11:20 AM55.4 °F53.6 °F94 %29.92 in5.6 miESE (120°)6.9 mphMostly Cloudy
11:50 AM57.2 °F53.6 °F88 %29.92 in6.2 miSE (140°)5.8 mphScattered Clouds
12:20 PM57.2 °F53.6 °F88 %29.92 in6.2 miSSE (160°)8.1 mphScattered Clouds
12:50 PM57.2 °F53.6 °F88 %29.92 in6.2 miSSE (160°)9.2 mphScattered Clouds
1:20 PM57.2 °F53.6 °F88 %29.92 in6.2 miSSE (150°)10.4 mphPartly Cloudy
1:50 PM57.2 °F53.6 °F88 %29.89 in6.2 miSSE (150°)10.4 mphScattered Clouds
2:20 PM57.2 °F51.8 °F82 %29.89 in6.2 miSouth (170°)12.7 mphRainLight Rain
2:50 PM55.4 °F53.6 °F94 %29.89 in4.3 miSE (140°)9.2 mphRainLight Rain
3:20 PM55.4 °F53.6 °F94 %29.89 in5.0 miSE (130°)9.2 mphRainLight Rain
3:50 PM57.2 °F53.6 °F88 %29.86 in6.2 miSE (130°)9.2 mphScattered Clouds
4:20 PM57.2 °F53.6 °F88 %29.83 in6.2 miESE (120°)10.4 mphPartly Cloudy
4:50 PM57.2 °F53.6 °F88 %29.83 in6.2 miESE (120°)9.2 mph
5:20 PM57.2 °F53.6 °F88 %29.80 in6.2 miSE (140°)12.7 mph
5:50 PM57.2 °F53.6 °F88 %29.80 in6.2 miSE (130°)10.4 mphPartly Cloudy
6:20 PM57.2 °F53.6 °F88 %29.80 in6.2 miSE (130°)13.8 mphPartly Cloudy
6:50 PM57.2 °F53.6 °F88 %29.77 in6.2 miSE (130°)12.7 mphPartly Cloudy
7:20 PM57.2 °F53.6 °F88 %29.77 in6.2 miSE (140°)13.8 mphPartly Cloudy
7:50 PM57.2 °F53.6 °F88 %29.77 in6.2 miSE (140°)15.0 mphPartly Cloudy
8:20 PM57.2 °F53.6 °F88 %29.77 inSE (140°)13.8 mphClear
8:50 PM59.0 °F51.8 °F77 %29.77 in6.2 miSE (140°)12.7 mphScattered Clouds
9:20 PM57.2 °F51.8 °F82 %29.74 inSE (140°)12.7 mphClear
9:50 PM57.2 °F51.8 °F82 %29.74 inSSE (150°)11.5 mphClear
10:20 PM57.2 °F51.8 °F82 %29.74 in6.2 miSSE (150°)10.4 mphRainLight Rain
10:50 PM55.4 °F51.8 °F88 %29.74 in6.2 miSSE (150°)11.5 mphRainLight Rain
11:20 PM55.4 °F51.8 °F88 %29.74 in6.2 miSSE (150°)13.8 mphRainLight Rain
11:50 PM55.4 °F51.8 °F88 %29.71 in6.2 miSSE (150°)11.5 mphRainLight Rain
Hourly data recorded from EGCC, located miles away from Congleton, England







STORIES FROM OUR PARTNERS